Location: ????????
(56.0167°N, 38.0333°E)
Time: 03:21:34
(UTC+00:00)

ASTEX 1 - Pass Details

Date: 19 May 2025
Orbit: 715 x 734 km, 92.7° (Epoch: 15 June)

Event Time Altitude Azimuth Distance (km) Brightness Sun altitude
Rises 21:36:13 0° 5° (N) 3,162 8.7 -14.0°
Reaches altitude 10° 21:38:31 10° 5° (N) 2,239 7.4 -14.0°
Maximum altitude 21:43:29 85° 277° (W) 743 3.4 -13.9°
Enters shadow 21:46:50 21° 191° (S) 1,609 4.5 -13.9°
